Imperial, NE

6:09 AM MST on February 11, 2016 (GMT -0700)
Imperial Municipal

Weather History for KIML - June, 2014

Change the Weather History Date:

Monday, June 9, 2014

  Actual Average Record
Temperature  
Mean Temperature 56 °F 68 °F  
Max Temperature 64 °F 82 °F 102 °F (2012)
Min Temperature 48 °F 54 °F 38 °F (1966)
Degree Days  
Heating Degree Days 9 1  
Month to date heating degree days 20 19  
Since 1 June heating degree days 20 19  
Cooling Degree Days 0 5  
Month to date cooling degree days 37 35  
Year to date cooling degree days 98 79  
Since 1 June cooling degree days 37 35  
Growing Degree Days 6 (Base 50)    
Moisture  
Dew Point 48 °F    
Average Humidity 79    
Maximum Humidity 93    
Minimum Humidity 65    
Precipitation  
Precipitation 0.84 in 0.11 in 1.53 in (1987)
Sea Level Pressure  
Sea Level Pressure 30.01 in    
Wind  
Wind Speed 16 mph (North)    
Max Wind Speed 31 mph    
Max Gust Speed 39 mph    
Visibility 8 miles    
Events Rain    
T = Trace of Precipitation, MM = Missing Value Source: NWS Daily Summary

Daily Weather History Graph

Daily Weather History Graph

Search for Another Location

Airport or City:

Trip Planner

Search our weather history database for the weather conditions in past years. The results will help you decide how hot, cold, wet, or windy it might be!

Date:

Astronomy

Jun. 09, 2014 Rise Set
Actual Time 5:15 AM MDT 8:15 PM MDT
Civil Twilight 4:42 AM MDT 8:49 PM MDT
Nautical Twilight 4:00 AM MDT 9:30 PM MDT
Astronomical Twilight 3:12 AM MDT 10:19 PM MDT
Moon 4:38 PM MDT (6/9) 2:45 AM MDT (6/9)
Length of Visible Light 16h 06m
Length of Day
15h 00m
Waxing Gibbous, 85% of the Moon is Illuminated
Jun 9
Waxing Gibbous
Jun 12
Full
Jun 19
Last Quarter
Jun 27
New
Jul 5
First Quarter

Hourly Weather History & Observations

Time (MDT) Temp. Dew Point Humidity Pressure Visibility Wind Dir Wind Speed Gust Speed Precip Events Conditions
12:53 AM 50.0 °F 48.0 °F 93% 29.90 in 7.0 mi North 20.7 mph 29.9 mph 0.06 in Rain Light Rain
1:53 AM 48.9 °F 46.9 °F 93% 29.92 in 8.0 mi North 25.3 mph 36.8 mph 0.09 in Rain Light Rain
2:49 AM 48.2 °F 46.4 °F 93% 29.95 in 8.0 mi North 25.3 mph 32.2 mph 0.09 in Rain Light Rain
2:53 AM 48.9 °F 46.9 °F 93% 29.92 in 10.0 mi North 28.8 mph 34.5 mph 0.09 in Rain Light Rain
3:53 AM 48.9 °F 46.9 °F 93% 29.94 in 5.0 mi North 23.0 mph 31.1 mph 0.11 in Rain Rain
4:16 AM 48.9 °F 46.9 °F 93% 29.97 in 6.0 mi North 23.0 mph - 0.06 in Rain Rain
4:30 AM 48.9 °F 46.0 °F 90% 29.98 in 7.0 mi North 23.0 mph 29.9 mph 0.09 in Rain Light Rain
4:43 AM 48.9 °F 46.0 °F 90% 29.98 in 7.0 mi North 24.2 mph 32.2 mph 0.12 in Rain Light Rain
4:53 AM 48.9 °F 46.0 °F 90% 29.95 in 6.0 mi North 24.2 mph - 0.14 in Rain Rain
5:28 AM 48.9 °F 46.0 °F 90% 29.98 in 6.0 mi North 25.3 mph 36.8 mph 0.08 in Rain Rain
5:53 AM 48.9 °F 46.0 °F 90% 29.97 in 7.0 mi North 27.6 mph 39.1 mph 0.13 in Rain Light Rain
6:13 AM 48.9 °F 46.0 °F 90% 30.00 in 7.0 mi North 26.5 mph 33.4 mph 0.04 in Rain Light Rain
6:31 AM 48.0 °F 46.0 °F 93% 30.00 in 5.0 mi North 26.5 mph 39.1 mph 0.07 in Rain Rain
6:53 AM 48.9 °F 46.0 °F 90% 29.99 in 6.0 mi North 25.3 mph - 0.10 in Rain Light Rain
7:53 AM 48.9 °F 46.0 °F 90% 29.99 in 7.0 mi North 26.5 mph 39.1 mph 0.07 in Rain Light Rain
8:53 AM 50.0 °F 46.4 °F 87% 30.03 in 6.0 mi North 21.9 mph 33.4 mph N/A Rain Light Rain
9:01 AM 50.0 °F 46.9 °F 89% 30.03 in 8.0 mi North 25.3 mph 31.1 mph 0.01 in Rain Light Rain
9:30 AM 51.1 °F 48.0 °F 89% 30.04 in 10.0 mi North 20.7 mph 29.9 mph 0.02 in Rain Light Rain
9:53 AM 51.1 °F 48.0 °F 89% 30.04 in 10.0 mi North 26.5 mph 33.4 mph 0.03 in Rain Light Rain
10:53 AM 52.0 °F 48.0 °F 86% 30.06 in 10.0 mi North 18.4 mph - 0.01 in Rain Light Rain
11:53 AM 52.0 °F 48.9 °F 89% 30.08 in 10.0 mi North 19.6 mph - 0.03 in Rain Light Rain
12:10 PM 52.0 °F 48.9 °F 89% 30.08 in 10.0 mi North 18.4 mph - 0.00 in Rain Light Rain
12:24 PM 53.1 °F 48.9 °F 86% 30.08 in 10.0 mi NNE 21.9 mph 26.5 mph 0.00 in Rain Light Rain
1:28 PM 55.0 °F 50.0 °F 83% 30.07 in 10.0 mi North 18.4 mph 27.6 mph 0.00 in   Overcast
1:53 PM 55.4 °F 48.2 °F 77% 30.06 in 10.0 mi North 19.6 mph - N/A   Overcast
2:53 PM 59.0 °F 50.0 °F 72% 30.04 in 10.0 mi North 15.0 mph - N/A   Mostly Cloudy
3:53 PM 61.0 °F 51.1 °F 70% 30.02 in 10.0 mi North 13.8 mph - N/A   Overcast
4:23 PM 62.1 °F 51.1 °F 67% 30.04 in 10.0 mi North 13.8 mph - N/A   Mostly Cloudy
4:53 PM 62.6 °F 50.0 °F 63% 30.04 in 10.0 mi NNE 11.5 mph - N/A   Scattered Clouds
5:53 PM 63.0 °F 50.0 °F 63% 30.00 in 10.0 mi NNE 10.4 mph - N/A   Mostly Cloudy
6:53 PM 61.0 °F 51.1 °F 70% 30.01 in 10.0 mi NE 9.2 mph - N/A   Partly Cloudy
7:53 PM 57.9 °F 50.0 °F 75% 30.01 in 10.0 mi East 5.8 mph - N/A   Clear
8:53 PM 55.0 °F 50.0 °F 83% 30.02 in 10.0 mi Calm Calm - N/A   Clear
9:53 PM 53.1 °F 48.9 °F 86% 30.03 in 10.0 mi East 4.6 mph - N/A   Clear
10:53 PM 51.1 °F 48.0 °F 89% 30.02 in 10.0 mi East 6.9 mph - N/A   Clear
11:53 PM 48.9 °F 46.0 °F 90% 30.03 in 10.0 mi Calm Calm - N/A   Clear